When you browse on this site, cookies collect data to enhance your experience and personalize the content and advertising you see.
Visit our Privacy Policy to learn more. By continuing to use the site, you agree to this use of cookies and data.
  • In Sweden
  • List of Countries
  • For 7 days
  • Water Temperature
  • Satellite Maps
  • Weather Map
  • Weather Widgets
  • user-avatar
    Login

    Hourly Weather Jeddah

    Today, 17 July, Wednesday

    Time Temperature Precipitation Wind Pressure Humidity
    00:00 +35°C° 0 mm 3 mps 751 mmHg 33%
    01:00 +35°C° 0 mm 3 mps 751 mmHg 36%
    02:00 +34°C° 0 mm 4 mps 750 mmHg 40%
    03:00 +33°C° 0 mm 4 mps 750 mmHg 42%
    04:00 +33°C° 0 mm 4 mps 751 mmHg 47%
    05:00 +32°C° 0 mm 4 mps 751 mmHg 52%
    06:00 +32°C° 0 mm 4 mps 751 mmHg 57%
    07:00 +34°C° 0 mm 3 mps 752 mmHg 48%
    08:00 +36°C° 0 mm 3 mps 752 mmHg 40%
    09:00 +38°C° 0 mm 3 mps 752 mmHg 31%
    10:00 +40°C° 0 mm 4 mps 752 mmHg 31%
    11:00 +41°C° 0 mm 5 mps 752 mmHg 31%
    12:00 +42°C° 0 mm 6 mps 752 mmHg 31%
    13:00 +41°C° 0 mm 6 mps 751 mmHg 31%
    14:00 +41°C° 0 mm 7 mps 751 mmHg 31%
    15:00 +41°C° 0 mm 7 mps 750 mmHg 31%
    16:00 +41°C° 0 mm 6 mps 750 mmHg 29%
    17:00 +41°C° 0 mm 5 mps 750 mmHg 27%
    18:00 +40°C° 0 mm 4 mps 750 mmHg 25%
    19:00 +38°C° 0 mm 3 mps 750 mmHg 28%
    20:00 +37°C° 0 mm 3 mps 750 mmHg 31%
    21:00 +35°C° 0 mm 2 mps 751 mmHg 34%
    22:00 +35°C° 0 mm 2 mps 751 mmHg 35%
    23:00 +34°C° 0 mm 2 mps 751 mmHg 36%

    Tomorrow, 18 July, Thursday

    Time Temperature Precipitation Wind Pressure Humidity
    00:00 +33°C° 0 mm 1 mps 751 mmHg 37%
    01:00 +32°C° 0 mm 2 mps 751 mmHg 38%
    02:00 +32°C° 0 mm 2 mps 750 mmHg 40%
    03:00 +32°C° 0 mm 2 mps 750 mmHg 42%
    04:00 +31°C° 0 mm 2 mps 750 mmHg 43%
    05:00 +31°C° 0 mm 2 mps 751 mmHg 45%
    06:00 +31°C° 0 mm 1 mps 751 mmHg 47%
    07:00 +34°C° 0 mm 2 mps 752 mmHg 41%
    08:00 +36°C° 0 mm 2 mps 752 mmHg 36%
    09:00 +38°C° 0 mm 2 mps 752 mmHg 30%
    10:00 +39°C° 0 mm 3 mps 752 mmHg 29%
    11:00 +41°C° 0 mm 4 mps 752 mmHg 27%
    12:00 +42°C° 0 mm 4 mps 752 mmHg 26%
    13:00 +42°C° 0 mm 4 mps 751 mmHg 26%
    14:00 +42°C° 0 mm 4 mps 751 mmHg 27%
    15:00 +42°C° 0 mm 4 mps 750 mmHg 27%
    16:00 +42°C° 0 mm 4 mps 750 mmHg 29%
    17:00 +40°C° 0 mm 3 mps 750 mmHg 31%
    18:00 +40°C° 0 mm 3 mps 750 mmHg 33%
    19:00 +38°C° 0 mm 2 mps 750 mmHg 39%
    20:00 +36°C° 0 mm 2 mps 751 mmHg 44%
    21:00 +34°C° 0 mm 1 mps 751 mmHg 49%
    22:00 +34°C° 0 mm 1 mps 751 mmHg 51%
    23:00 +33°C° 0 mm 1 mps 751 mmHg 52%

    Day after tomorrow, 19 July, Friday

    Time Temperature Precipitation Wind Pressure Humidity
    00:00 +33°C° 0 mm 1 mps 751 mmHg 54%
    01:00 +33°C° 0 mm 1 mps 751 mmHg 53%
    02:00 +33°C° 0 mm 1 mps 751 mmHg 51%
    03:00 +33°C° 0 mm 1 mps 751 mmHg 50%
    04:00 +32°C° 0 mm 1 mps 751 mmHg 50%
    05:00 +32°C° 0 mm 1 mps 751 mmHg 51%
    06:00 +31°C° 0 mm 1 mps 751 mmHg 51%
    07:00 +34°C° 0 mm 2 mps 751 mmHg 46%
    08:00 +36°C° 0 mm 3 mps 752 mmHg 41%
    09:00 +38°C° 0 mm 4 mps 752 mmHg 36%
    10:00 +40°C° 0 mm 4 mps 752 mmHg 33%
    11:00 +41°C° 0 mm 5 mps 752 mmHg 30%
    12:00 +42°C° 0 mm 6 mps 752 mmHg 27%
    13:00 +42°C° 0 mm 6 mps 751 mmHg 28%
    14:00 +42°C° 0 mm 6 mps 750 mmHg 30%
    15:00 +43°C° 0 mm 7 mps 750 mmHg 32%
    16:00 +41°C° 0 mm 7 mps 749 mmHg 36%
    17:00 +40°C° 0 mm 6 mps 749 mmHg 40%
    18:00 +40°C° 0 mm 6 mps 749 mmHg 43%
    19:00 +39°C° 0 mm 5 mps 749 mmHg 45%
    20:00 +37°C° 0 mm 4 mps 750 mmHg 47%
    21:00 +36°C° 0 mm 3 mps 750 mmHg 49%
    22:00 +36°C° 0 mm 3 mps 750 mmHg 48%
    23:00 +36°C° 0 mm 3 mps 750 mmHg 46%

    20 July, Saturday

    Time Temperature Precipitation Wind Pressure Humidity
    00:00 +36°C° 0 mm 3 mps 750 mmHg 45%
    01:00 +35°C° 0 mm 3 mps 750 mmHg 49%
    02:00 +35°C° 0 mm 4 mps 749 mmHg 52%
    03:00 +35°C° 0 mm 4 mps 749 mmHg 56%
    04:00 +35°C° 0 mm 4 mps 749 mmHg 57%
    05:00 +35°C° 0 mm 4 mps 749 mmHg 59%
    06:00 +35°C° 0 mm 4 mps 750 mmHg 60%
    07:00 +37°C° 0 mm 4 mps 750 mmHg 51%
    08:00 +40°C° 0 mm 5 mps 750 mmHg 42%
    09:00 +42°C° 0 mm 5 mps 751 mmHg 33%
    10:00 +42°C° 0 mm 6 mps 750 mmHg 34%
    11:00 +44°C° 0 mm 7 mps 750 mmHg 34%
    12:00 +44°C° 0 mm 9 mps 750 mmHg 34%
    13:00 +44°C° 0 mm 9 mps 750 mmHg 36%
    14:00 +43°C° 0 mm 10 mps 749 mmHg 37%
    15:00 +43°C° 0 mm 10 mps 749 mmHg 39%
    16:00 +42°C° 0 mm 9 mps 749 mmHg 40%
    17:00 +40°C° 0 mm 9 mps 749 mmHg 41%
    18:00 +39°C° 0 mm 9 mps 749 mmHg 42%
    19:00 +38°C° 0 mm 7 mps 749 mmHg 46%
    20:00 +36°C° 0 mm 6 mps 749 mmHg 50%
    21:00 +35°C° 0 mm 5 mps 750 mmHg 54%
    22:00 +35°C° 0 mm 4 mps 749 mmHg 55%
    23:00 +34°C° 0 mm 4 mps 749 mmHg 56%

    21 July, Sunday

    Time Temperature Precipitation Wind Pressure Humidity
    00:00 +34°C° 0 mm 3 mps 749 mmHg 57%
    01:00 +34°C° 0 mm 4 mps 749 mmHg 57%
    02:00 +34°C° 0 mm 4 mps 749 mmHg 57%
    03:00 +33°C° 0 mm 4 mps 748 mmHg 57%
    04:00 +33°C° 0 mm 5 mps 748 mmHg 58%
    05:00 +34°C° 0 mm 5 mps 749 mmHg 59%
    06:00 +34°C° 0 mm 5 mps 749 mmHg 59%
    07:00 +35°C° 0 mm 6 mps 749 mmHg 53%
    08:00 +38°C° 0 mm 7 mps 749 mmHg 47%
    09:00 +40°C° 0 mm 8 mps 749 mmHg 41%
    10:00 +41°C° 0 mm 8 mps 749 mmHg 38%
    11:00 +43°C° 0 mm 9 mps 749 mmHg 35%
    12:00 +44°C° 0 mm 10 mps 749 mmHg 31%
    13:00 +44°C° 0 mm 11 mps 748 mmHg 32%
    14:00 +43°C° 0 mm 12 mps 748 mmHg 34%
    15:00 +43°C° 0 mm 12 mps 748 mmHg 35%
    16:00 +42°C° 0 mm 12 mps 747 mmHg 35%
    17:00 +42°C° 0 mm 11 mps 747 mmHg 36%
    18:00 +41°C° 0 mm 11 mps 747 mmHg 37%
    19:00 +39°C° 0 mm 9 mps 748 mmHg 38%
    20:00 +38°C° 0 mm 8 mps 748 mmHg 40%
    21:00 +36°C° 0 mm 7 mps 749 mmHg 42%
    22:00 +36°C° 0 mm 6 mps 749 mmHg 40%
    23:00 +35°C° 0 mm 6 mps 749 mmHg 38%

    22 July, Monday

    Time Temperature Precipitation Wind Pressure Humidity
    00:00 +35°C° 0 mm 6 mps 749 mmHg 36%
    01:00 +35°C° 0 mm 5 mps 748 mmHg 42%
    02:00 +34°C° 0 mm 5 mps 748 mmHg 48%
    03:00 +33°C° 0 mm 5 mps 748 mmHg 54%
    04:00 +33°C° 0 mm 5 mps 748 mmHg 56%
    05:00 +33°C° 0 mm 5 mps 748 mmHg 59%
    06:00 +32°C° 0 mm 5 mps 748 mmHg 62%
    07:00 +34°C° 0 mm 6 mps 749 mmHg 54%
    08:00 +36°C° 0 mm 6 mps 749 mmHg 46%
    09:00 +39°C° 0 mm 7 mps 749 mmHg 39%
    10:00 +40°C° 0 mm 8 mps 749 mmHg 37%
    11:00 +41°C° 0 mm 8 mps 749 mmHg 35%
    12:00 +43°C° 0 mm 9 mps 749 mmHg 34%
    13:00 +42°C° 0 mm 10 mps 749 mmHg 37%
    14:00 +42°C° 0 mm 10 mps 748 mmHg 39%
    15:00 +41°C° 0 mm 11 mps 748 mmHg 42%
    16:00 +40°C° 0 mm 9 mps 748 mmHg 41%
    17:00 +40°C° 0 mm 8 mps 748 mmHg 40%
    18:00 +39°C° 0 mm 6 mps 748 mmHg 38%
    19:00 +38°C° 0 mm 6 mps 748 mmHg 41%
    20:00 +36°C° 0 mm 5 mps 749 mmHg 43%
    21:00 +35°C° 0 mm 4 mps 749 mmHg 46%
    22:00 +35°C° 0 mm 4 mps 749 mmHg 46%
    23:00 +35°C° 0 mm 3 mps 749 mmHg 46%
    Show more